Location: La Chapelle
(48.3135°N, 1.3085°W)
Time: 02:50:36
(UTC+00:00)

Lacrosse 4 Rocket - Pass Details

Date: 03 March 2021
Orbit: 537 x 620 km, 68.0° (Epoch: 16 April)

Event Time Altitude Azimuth Distance (km) Brightness Sun altitude
Rises 19:10:30 0° 170° (S) 2,818 4.8 -13.7°
Reaches altitude 10° 19:13:12 10° 153° (SSE) 1,937 3.8 -14.2°
Enters shadow 19:14:33 16° 137° (SE) 1,615 3.3 -14.4°
